Location: Lewisville
(33.0462°N, 96.9942°W)
Time: 07:38:06
(UTC-06:00)

LightSail 2 - Pass Details

Date: 02 December 2019
Orbit: 704 x 719 km, 24.0° (Epoch: 27 January)

Event Time Altitude Azimuth Distance (km) Brightness Sun altitude
Rises 19:00:29 0° 245° (WSW) 3,088 9.9 -20.5°
Reaches altitude 10° 19:03:11 10° 233° (SW) 2,166 8.6 -21.0°
Maximum altitude 19:07:32 28° 175° (S) 1,297 6.5 -21.9°
Enters shadow 19:09:03 24° 146° (SE) 1,431 6.5 -22.2°
